Location: Colonia Mina de C?rbuni
(46.1667°N, 22.7167°E)
Time: 18:06:43
(UTC+00:00)

Cosmos 2278 Rocket - Pass Details

Date: 04 February 2023
Orbit: 841 x 845 km, 71.0° (Epoch: 29 March)

Event Time Altitude Azimuth Distance (km) Brightness Sun altitude
Rises 17:58:28 0° 337° (NNW) 3,415 5.7 -24.6°
Reaches altitude 10° 18:01:03 10° 344° (NNW) 2,476 4.8 -25.0°
Enters shadow 18:05:08 37° 21° (NNE) 1,283 2.9 -25.7°
